Location: Unspecified
(0.0000°N, 0.0000°E)
Time: 05:29:37
(UTC+00:00)

Vanguard 1 - All Passes

Search period start: 31 January 2015 00:00
Search period end: 10 February 2015 00:00
Orbit: 653 x 3833 km, 34.2° (Epoch: 28 January)

Date Brightness Start Highest point End Pass type
(mag) Time Alt. Az. Time Alt. Az. Time Alt. Az.
31 Jan - 01:12:59 10° SW 01:36:52 83° SE 01:55:37 10° NE visible
31 Jan - 03:42:49 10° WSW 04:03:25 42° NW 04:16:27 10° NNE visible
31 Jan - 13:36:45 10° NW 13:41:12 83° NE 13:47:12 10° SE daylight
31 Jan - 15:58:55 10° WSW 16:03:05 17° SSW 16:08:30 10° SSE daylight
31 Jan - 20:49:12 10° SSW 20:59:55 19° SSE 21:14:43 10° ESE visible
31 Jan - 23:10:30 10° SW 23:30:26 48° SSE 23:51:46 10° ENE visible
01 Feb - 01:35:04 10° SW 01:59:05 82° NW 02:17:17 10° NE visible
01 Feb - 04:07:06 10° W 04:25:30 32° NW 04:37:15 10° NNE visible
01 Feb - 11:40:22 10° N 11:42:26 13° NNE 11:44:37 10° ENE daylight
01 Feb - 13:58:15 10° WNW 14:02:39 52° SSW 14:08:43 10° SE daylight
01 Feb - 16:22:47 10° SW 16:25:32 12° SSW 16:28:33 10° S daylight
01 Feb - 21:10:26 10° SSW 21:23:16 24° SSE 21:40:47 10° ESE visible
01 Feb - 23:31:54 10° SW 23:53:04 59° SE 00:14:40 10° ENE visible
02 Feb - 01:57:30 10° WSW 02:21:13 67° NW 02:38:42 10° NE visible
02 Feb - 04:32:14 10° W 04:47:49 24° NNW 04:57:53 10° NNE visible
02 Feb - 12:00:18 10° NNW 12:04:02 24° NE 12:07:51 10° E daylight
02 Feb - 14:20:12 10° W 14:24:20 29° SSW 14:29:50 10° SSE daylight
02 Feb - 19:13:31 10° S 19:16:20 11° SSE 19:20:19 10° SSE visible
02 Feb - 21:31:34 10° SSW 21:46:20 31° SSE 22:06:01 10° E visible
02 Feb - 23:53:26 10° SW 00:15:30 71° SE 00:37:05 10° ENE visible
03 Feb - 02:20:22 10° WSW 02:43:22 54° NW 02:59:56 10° NE visible
03 Feb - 04:58:24 10° WNW 05:10:23 18° NNW 05:18:18 10° N visible
03 Feb - 12:21:06 10° NW 12:25:28 48° NE 12:30:04 10° ESE daylight
03 Feb - 14:42:46 10° WSW 14:46:14 18° SSW 14:50:28 10° SSE daylight
03 Feb - 19:33:52 10° S 19:39:43 13° SSE 19:48:03 10° SE visible
03 Feb - 21:52:41 10° SSW 22:09:09 38° SSE 22:30:26 10° E visible
04 Feb - 00:15:08 10° SW 00:37:50 85° SE 00:59:07 10° NE visible
04 Feb - 02:43:48 10° WSW 03:05:36 43° NW 03:21:01 10° NNE visible
04 Feb - 05:25:45 10° NW 05:33:12 13° NNW 05:38:14 10° N visible
04 Feb - 12:42:21 10° NW 12:46:50 83° SW 12:51:45 10° SE daylight
04 Feb - 15:06:46 10° SW 15:08:23 11° SSW 15:09:56 10° S daylight
04 Feb - 19:54:29 10° S 20:02:56 17° SSE 20:15:15 10° ESE visible
04 Feb - 22:13:51 10° SW 22:31:43 48° SE 22:54:06 10° ENE visible
05 Feb - 00:37:06 10° WSW 01:00:05 80° NW 01:20:52 10° NE visible
05 Feb - 03:07:57 10° W 03:28:01 34° NNW 03:42:00 10° NNE visible
05 Feb - 10:44:26 10° NNW 10:47:52 17° NNE 10:50:57 10° ENE daylight
05 Feb - 13:04:04 10° WNW 13:08:15 41° SW 13:13:00 10° SE daylight
05 Feb - 20:15:12 10° SSW 20:25:54 23° SSE 20:41:41 10° ESE visible
05 Feb - 22:35:06 10° SW 22:54:07 60° SE 23:17:08 10° ENE visible
06 Feb - 00:59:25 10° WSW 01:22:22 66° NW 01:42:23 10° NE visible
06 Feb - 03:32:55 10° W 03:50:40 26° NNW 04:02:53 10° NNE visible
06 Feb - 11:04:56 10° NNW 11:09:35 30° NNE 11:13:33 10° E daylight
06 Feb - 13:26:20 10° W 13:29:51 22° SSW 13:33:46 10° SSE daylight
06 Feb - 20:36:00 10° SSW 20:48:37 29° SSE 21:07:11 10° E visible
06 Feb - 22:56:30 10° SW 23:16:23 73° SE 23:39:41 10° ENE visible
07 Feb - 01:22:09 10° WSW 01:44:44 54° NW 02:03:44 10° NE visible
07 Feb - 03:58:49 10° WNW 04:13:35 20° NNW 04:23:44 10° NNE visible
07 Feb - 11:26:00 10° NW 11:31:06 59° NE 11:35:28 10° ESE daylight
07 Feb - 13:49:41 10° SW 13:51:39 12° SSW 13:53:36 10° S daylight
07 Feb - 18:42:14 10° SSE 18:43:32 10° SSE 18:46:05 10° SSE visible
07 Feb - 20:56:53 10° SSW 21:11:05 38° SE 21:31:48 10° E visible
07 Feb - 23:18:05 10° SW 23:38:37 87° SE 00:01:50 10° NE visible
08 Feb - 01:45:26 10° W 02:07:15 43° NNW 02:24:58 10° NNE visible
08 Feb - 04:25:32 10° NW 04:36:45 16° NNW 04:44:33 10° N visible
08 Feb - 09:27:28 10° NNW 09:31:16 15° NNE 09:34:29 10° ENE daylight
08 Feb - 11:47:29 10° WNW 11:52:30 69° SW 11:56:55 10° SE daylight
08 Feb - 19:00:28 10° S 19:06:25 14° SSE 19:15:20 10° ESE visible
08 Feb - 21:17:52 10° SSW 21:33:20 48° SE 21:55:37 10° ENE visible
08 Feb - 23:39:57 10° WSW 00:00:54 78° NW 00:23:41 10° NE visible
09 Feb - 02:09:23 10° W 02:30:00 35° NNW 02:46:08 10° NNE visible
09 Feb - 04:52:44 10° NW 05:00:06 13° NNW 05:05:25 10° N visible
09 Feb - 09:47:53 10° NNW 09:53:19 24° NNE 09:57:23 10° E daylight
09 Feb - 12:09:27 10° WNW 12:13:51 34° SW 12:17:55 10° SSE daylight
09 Feb - 19:20:32 10° S 19:29:03 20° SSE 19:42:11 10° ESE visible
09 Feb - 21:39:00 10° SW 21:55:27 60° SE 22:18:48 10° ENE visible
